Starlink 31191

operational
NORAD ID: 58800 Int'l Des: 2024-012 Owner: SPXS Country: US Constellation: starlink
LEOCIRCULAR

Über Starlink 31191

Beschreibung wird geladen...

Live-Position

3D-Globus wird geladen...

Nächste Überflüge

Höhenverlauf

Altitude vs Time

uPlot chart will show altitude changes over time

Zweizeiliger Elementsatz

1 58800U 24012P 25258.22120693 -.00001474 00000-0 -44014-4 0 9992
2 58800 43.0059 75.9137 0001466 274.9910 85.0774 15.27590334 94402
Epoch: 15. Sept. 2025 • Age: 23 hours

Aktueller Status

Höhe 491.7 km
Geschwindigkeit 7.62 km/s
Subsatellitenpunkt -33.41°S, 124.62°W
Startdatum 15. Jan. 2024
Alter 1.6 years
Typ internet

Technische Details

Klassifizierung Payload
Masse 730.00 kg
Trockenmasse 700.00 kg
Gesamtmasse 730.00 kg
Länge 0.30 m
Durchmesser 4.10 m
Spannweite 29.00 m
Form Box + pan
Hersteller SPXS
Bus-Typ Starlink V2M
Phasenstatus In Orbit
Besitzer/Staat SPXS/US

Große Konstellationen

Loading constellations...